This demonstration page uses our WeatherBlox Daily Observations layout. Learn more.

39.92423, -83.80882

Hourly Observations for May 3, 2017

Temp ( °F °C ) Dew Point ( °F °C ) Humidity (%) Winds ( mph kmh ) Pressure ( in mb ) Visibility ( mi km ) Precip ( " mm )
12:56 am 00:56 Cloudy 47 8.3 37 2.8 69 69 WNW 10 17 30.01 1016 10 16.0934 0 0
1:56 am 01:56 Cloudy 47 8.3 38 3.3 71 71 WNW 13 20 30.02 1017 10 16.0934 0 0
2:56 am 02:56 Cloudy 46 7.8 38 3.3 73 73 WNW 10 17 30.02 1017 10 16.0934 0 0
3:21 am 03:21 Mostly Cloudy 46 8 39 4 76 76 W 9 15 30.06 1018 10 16.0934 0 0
3:56 am 03:56 Cloudy 45 7.2 39 3.9 80 80 W 8 13 30.04 1017 10 16.0934 0 0
4:56 am 04:56 Partly Cloudy 43 6.1 39 3.9 86 86 WNW 9 15 30.06 1018 10 16.0934 0 0.0254
5:56 am 05:56 Partly Cloudy 42 5.6 36 2.2 79 79 NW 12 19 30.08 1019 10 16.0934 0 0
6:05 am 06:05 Mostly Cloudy 43 6 36 2 76 76 NW 12 19 30.09 1019 10 16.0934 0 0
6:56 am 06:56 Cloudy 42 5.6 35 1.7 76 76 NNW 12 19 30.11 1020 10 16.0934 0 0
7:56 am 07:56 Cloudy 43 6.1 35 1.7 74 74 NNW 12 19 30.14 1021 10 16.0934 0 0
8:56 am 08:56 Cloudy 45 7.2 36 2.2 71 71 N 12 19 30.17 1022 10 16.0934 0 0
9:56 am 09:56 Mostly Cloudy 45 7.2 36 2.2 71 71 NNW 9 15 30.19 1022 10 16.0934 0 0
10:56 am 10:56 Sunny 48 8.9 38 3.3 68 68 NNE 8 13 30.21 1023 10 16.0934 0 0
11:49 am 11:49 Mostly Cloudy 48 9 37 3 66 66 Calm 30.24 1024 N/A 0.01 0.254
11:56 am 11:56 Mostly Cloudy with Haze 51 10.6 38 3.3 61 61 NE 6 9 30.24 1024 1 1.60934 0.01 0.254
12:04 pm 12:04 Cloudy 50 10 37 3 62 62 VRB 5 7 30.24 1024 10 16.0934 0 0
12:37 pm 12:37 Mostly Cloudy 50 10 37 3 62 62 VRB 3 6 30.21 1023 10 16.0934 0 0
12:56 pm 12:56 Cloudy 53 11.7 39 3.9 59 59 E 5 7 30.18 1022 10 16.0934 0 0
2:56 pm 14:56 Mostly Cloudy 55 12.8 40 4.4 57 57 NE 10 17 30.15 1021 10 16.0934 0 0
3:56 pm 15:56 Mostly Cloudy 55 12.8 41 5 59 59 E 9 15 30.12 1020 10 16.0934 0 0
4:56 pm 16:56 Cloudy 54 12.2 40 4.4 59 59 E 8 13 30.09 1019 10 16.0934 0 0
5:56 pm 17:56 Cloudy 54 12.2 39 3.9 57 57 E 9 15 30.15 1021 10 16.0934 0 0
6:56 pm 18:56 Cloudy with Light Rain 53 11.7 43 6.1 69 69 E 8 13 30.15 1021 10 16.0934 0 0.0254
7:56 pm 19:56 Cloudy with Light Rain 50 10 45 7.2 83 83 SE 6 9 30.18 1022 10 16.0934 0.01 0.254
8:56 pm 20:56 Cloudy with Light Rain 50 10 46 7.8 86 86 ESE 7 11 30.15 1021 10 16.0934 0.02 0.508
9:56 pm 21:56 Cloudy with Light Rain 49 9.4 45 7.2 86 86 E 7 11 30.15 1021 10 16.0934 0 0.0254
10:56 pm 22:56 Cloudy 49 9.4 45 7.2 86 86 ENE 8 13 30.12 1020 10 16.0934 0.01 0.254
11:56 pm 23:56 Cloudy with Light Rain 50 10 45 7.2 83 83 E 10 17 30.11 1020 10 16.0934 0 0.0254

Powered by AerisWeather